Weather History for KUDG - November, 2013

Change the Weather History Date:

Tuesday, November 26, 2013

  Actual Average (KFLO) Record (KFLO)
Temperature  
Mean Temperature 54 °F 52 °F  
Max Temperature 69 °F 64 °F 82 °F (1973)
Min Temperature 39 °F 41 °F 16 °F (1950)
Degree Days  
Heating Degree Days 11 13  
Month to date heating degree days 250  
Since 1 July heating degree days 367  
Cooling Degree Days 0 0  
Month to date cooling degree days 16  
Year to date cooling degree days 2058  
Growing Degree Days 4 (Base 50)    
Moisture  
Dew Point 43 °F    
Average Humidity 71    
Maximum Humidity 88    
Minimum Humidity 33    
Precipitation  
Precipitation 0.51 in 0.09 in 1.46 in (1979)
Month to date precipitation 2.30  
Year to date precipitation 39.53  
Sea Level Pressure  
Sea Level Pressure 29.97 in    
Wind  
Wind Speed 8 mph (East)    
Max Wind Speed 16 mph    
Max Gust Speed 22 mph    
Visibility 9 miles    
Events      
T = Trace of Precipitation, MM = Missing Value Source: NWS Daily Summary

Daily Weather History Graph

Daily Weather History Graph

Search for Another Location

Airport or City:

Trip Planner

Search our weather history database for the weather conditions in past years. The results will help you decide how hot, cold, wet, or windy it might be!

Date:

Astronomy

Nov. 26, 2013 Rise Set
Actual Time 7:03 AM EST 5:10 PM EST
Civil Twilight 6:36 AM EST 5:37 PM EST
Nautical Twilight 6:05 AM EST 6:08 PM EST
Astronomical Twilight 5:35 AM EST 6:38 PM EST
Moon 12:22 AM EST (11/26) 1:01 PM EST (11/26)
Length of Visible Light 11h 01m
Length of Day
10h 06m
Last Quarter, 41% of the Moon is Illuminated
Nov 26
Last Quarter
Dec 2
New
Dec 9
First Quarter
Dec 17
Full
Dec 25
Last Quarter

Hourly Weather History & Observations

Time (EST) Temp. Windchill Dew Point Humidity Pressure Visibility Wind Dir Wind Speed Gust Speed Precip Events Conditions
12:15 AM 39.2 °F 34.2 °F 12.2 °F 33% 30.34 in 10.0 mi NE 6.9 mph - N/A   Overcast
12:35 AM 41.0 °F 36.4 °F 14.0 °F 33% 30.32 in 10.0 mi ENE 6.9 mph - N/A   Overcast
12:55 AM 39.2 °F 35.0 °F 15.8 °F 39% 30.30 in 10.0 mi ENE 5.8 mph - N/A   Overcast
1:15 AM 39.2 °F 34.2 °F 15.8 °F 39% 30.29 in 10.0 mi NNE 6.9 mph - N/A   Overcast
1:35 AM 41.0 °F 36.4 °F 15.8 °F 36% 30.28 in 10.0 mi NNE 6.9 mph - N/A   Overcast
1:55 AM 41.0 °F 36.4 °F 17.6 °F 39% 30.27 in 10.0 mi NE 6.9 mph - N/A   Overcast
2:15 AM 41.0 °F 37.1 °F 19.4 °F 42% 30.27 in 10.0 mi NNE 5.8 mph - N/A   Overcast
2:35 AM 41.0 °F 37.1 °F 21.2 °F 45% 30.27 in 10.0 mi NE 5.8 mph - N/A   Overcast
2:55 AM 41.0 °F 38.0 °F 21.2 °F 45% 30.26 in 10.0 mi NNE 4.6 mph - N/A   Overcast
3:15 AM 41.0 °F 37.1 °F 19.4 °F 42% 30.26 in 10.0 mi NNE 5.8 mph - N/A   Overcast
3:35 AM 41.0 °F 37.1 °F 19.4 °F 42% 30.26 in 10.0 mi North 5.8 mph - N/A   Overcast
3:55 AM 41.0 °F 37.1 °F 21.2 °F 45% 30.25 in 10.0 mi North 5.8 mph - N/A   Overcast
4:15 AM 41.0 °F 36.4 °F 19.4 °F 42% 30.24 in 10.0 mi NNE 6.9 mph - N/A   Overcast
4:35 AM 41.0 °F 37.1 °F 21.2 °F 45% 30.23 in 10.0 mi NNE 5.8 mph - N/A   Overcast
4:55 AM 41.0 °F 36.4 °F 21.2 °F 45% 30.22 in 10.0 mi NE 6.9 mph - N/A   Overcast
5:15 AM 41.0 °F 35.2 °F 24.8 °F 53% 30.21 in 10.0 mi NE 9.2 mph - N/A   Overcast
5:35 AM 41.0 °F 35.8 °F 24.8 °F 53% 30.20 in 10.0 mi NE 8.1 mph - N/A   Overcast
5:55 AM 41.0 °F 35.8 °F 26.6 °F 57% 30.21 in 10.0 mi NE 8.1 mph - N/A   Overcast
6:15 AM 41.0 °F 35.8 °F 28.4 °F 61% 30.20 in 10.0 mi NE 8.1 mph - N/A   Overcast
6:35 AM 41.0 °F 35.8 °F 28.4 °F 61% 30.19 in 10.0 mi NNE 8.1 mph - N/A   Overcast
6:55 AM 41.0 °F 36.4 °F 30.2 °F 65% 30.19 in 10.0 mi NNE 6.9 mph - N/A   Overcast
7:15 AM 41.0 °F 36.4 °F 30.2 °F 65% 30.18 in 10.0 mi NE 6.9 mph - N/A   Overcast
7:35 AM 41.0 °F 35.8 °F 30.2 °F 65% 30.17 in 10.0 mi NNE 8.1 mph - N/A   Overcast
7:55 AM 42.8 °F 38.0 °F 32.0 °F 66% 30.15 in 10.0 mi NE 8.1 mph - N/A   Overcast
8:15 AM 42.8 °F 38.0 °F 32.0 °F 66% 30.14 in 10.0 mi NNE 8.1 mph - N/A   Overcast
8:35 AM 42.8 °F 38.0 °F 33.8 °F 70% 30.13 in 10.0 mi NE 8.1 mph - N/A   Overcast
8:55 AM 42.8 °F 39.3 °F 33.8 °F 70% 30.13 in 10.0 mi NE 5.8 mph - N/A   Overcast
9:15 AM 44.6 °F 41.4 °F 33.8 °F 66% 30.13 in 10.0 mi NE 5.8 mph - N/A   Overcast
9:35 AM 44.6 °F 40.7 °F 33.8 °F 66% 30.12 in 10.0 mi ENE 6.9 mph - N/A   Overcast
9:55 AM 44.6 °F 39.7 °F 35.6 °F 71% 30.10 in 10.0 mi ENE 9.2 mph - N/A   Overcast
10:15 AM 46.4 °F 42.9 °F 35.6 °F 66% 30.09 in 10.0 mi ENE 6.9 mph - N/A   Overcast
10:35 AM 46.4 °F 42.4 °F 37.4 °F 71% 30.07 in 10.0 mi ENE 8.1 mph - N/A   Overcast
10:55 AM 48.2 °F - 39.2 °F 71% 30.05 in 10.0 mi ENE 8.1 mph - N/A   Overcast
11:15 AM 48.2 °F - 41.0 °F 76% 30.03 in 10.0 mi ENE 6.9 mph - N/A   Mostly Cloudy
11:35 AM 48.2 °F - 42.8 °F 82% 30.01 in 10.0 mi East 5.8 mph - N/A   Overcast
11:55 AM 48.2 °F - 44.6 °F 87% 30.00 in 9.0 mi East 5.8 mph - N/A   Overcast
12:15 PM 51.8 °F - 46.4 °F 82% 29.98 in 7.0 mi East 5.8 mph - N/A   Overcast
12:35 PM 51.8 °F - 48.2 °F 88% 29.96 in 6.0 mi East 6.9 mph - N/A   Overcast
12:55 PM 53.6 °F - 50.0 °F 88% 29.94 in 8.0 mi ESE 9.2 mph - N/A   Overcast
1:15 PM 55.4 °F - 50.0 °F 82% 29.93 in 5.0 mi ESE 8.1 mph - 0.01 in   Overcast
1:35 PM 55.4 °F - 51.8 °F 88% 29.91 in 5.0 mi ESE 8.1 mph - 0.04 in   Overcast
1:55 PM 57.2 °F - 51.8 °F 82% 29.89 in 5.0 mi ESE 9.2 mph - 0.06 in   Overcast
2:15 PM 57.2 °F - 53.6 °F 88% 29.87 in 6.0 mi ESE 10.4 mph - 0.02 in   Overcast
2:35 PM 59.0 °F - 55.4 °F 88% 29.86 in 9.0 mi ESE 11.5 mph - 0.03 in   Overcast
2:55 PM 60.8 °F - 55.4 °F 82% 29.84 in 8.0 mi ESE 11.5 mph - 0.04 in   Overcast
3:15 PM 62.6 °F - 57.2 °F 82% 29.83 in 9.0 mi SE 11.5 mph - 0.02 in   Overcast
3:35 PM 62.6 °F - 57.2 °F 82% 29.81 in 9.0 mi ESE 11.5 mph - 0.03 in   Overcast
3:55 PM 62.6 °F - 59.0 °F 88% 29.79 in 10.0 mi ESE 12.7 mph - 0.04 in   Overcast
4:15 PM 64.4 °F - 60.8 °F 88% 29.77 in 10.0 mi SE 16.1 mph 21.9 mph N/A   Overcast
4:35 PM 64.4 °F - 60.8 °F 88% 29.76 in 9.0 mi SE 11.5 mph - 0.04 in   Overcast
4:55 PM 64.4 °F - 60.8 °F 88% 29.75 in 7.0 mi SSE 10.4 mph - 0.09 in   Overcast
5:15 PM 64.4 °F - 60.8 °F 88% 29.73 in 5.0 mi ESE 9.2 mph - 0.16 in   Overcast
5:35 PM 64.4 °F - 60.8 °F 88% 29.73 in 9.0 mi SE 13.8 mph 20.7 mph 0.18 in   Overcast
5:55 PM 66.2 °F - 62.6 °F 88% 29.73 in 6.0 mi SSE 12.7 mph 20.7 mph 0.22 in   Overcast
6:15 PM 66.2 °F - 62.6 °F 88% 29.73 in 9.0 mi SSE 13.8 mph 17.3 mph 0.05 in   Overcast
6:35 PM 66.2 °F - 62.6 °F 88% 29.71 in 10.0 mi SSE 10.4 mph - 0.05 in   Overcast
6:55 PM 66.2 °F - 62.6 °F 88% 29.71 in 10.0 mi SSE 10.4 mph 18.4 mph 0.05 in   Overcast
7:15 PM 66.2 °F - 62.6 °F 88% 29.69 in 10.0 mi SSE 11.5 mph - N/A   Overcast
7:35 PM 66.2 °F - 62.6 °F 88% 29.69 in 10.0 mi South 11.5 mph - N/A   Overcast
7:55 PM 66.2 °F - 62.6 °F 88% 29.68 in 10.0 mi South 12.7 mph 18.4 mph N/A   Overcast
8:15 PM 69.8 °F - 64.4 °F 83% 29.69 in 10.0 mi South 10.4 mph 20.7 mph N/A   Overcast
8:35 PM 69.8 °F - 64.4 °F 83% 29.67 in 10.0 mi South 11.5 mph 19.6 mph N/A   Overcast
8:55 PM 69.8 °F - 64.4 °F 83% 29.66 in 10.0 mi SSW 11.5 mph 18.4 mph 0.01 in   Overcast
9:15 PM 69.8 °F - 64.4 °F 83% 29.64 in 10.0 mi SSW 11.5 mph - N/A   Overcast
9:35 PM 69.8 °F - 64.4 °F 83% 29.63 in 10.0 mi South 12.7 mph 17.3 mph N/A   Overcast
9:55 PM 69.8 °F - 64.4 °F 83% 29.63 in 10.0 mi South 10.4 mph 17.3 mph N/A   Overcast
10:15 PM 69.8 °F - 64.4 °F 83% 29.62 in 10.0 mi SSW 13.8 mph 17.3 mph N/A   Overcast
10:35 PM 69.8 °F - 62.6 °F 78% 29.62 in 10.0 mi South 10.4 mph 16.1 mph N/A   Overcast
10:55 PM 69.8 °F - 62.6 °F 78% 29.62 in 10.0 mi South 11.5 mph - N/A   Overcast
11:15 PM 69.8 °F - 62.6 °F 78% 29.61 in 10.0 mi South 9.2 mph - N/A   Overcast
11:35 PM 69.8 °F - 64.4 °F 83% 29.59 in 10.0 mi South 10.4 mph - N/A   Overcast
11:55 PM 69.8 °F - 64.4 °F 83% 29.58 in 10.0 mi South 10.4 mph - N/A   Overcast